Location: Newark
(45.5000°N, 11.4167°E)
Time: 03:49:41
(UTC+00:00)

Explorer 11/Cluster Stage 4 - Pass Details

Date: 26 August 2019
Orbit: 467 x 1260 km, 28.8° (Epoch: 21 September)

Event Time Altitude Azimuth Distance (km) Brightness Sun altitude
Rises 12:39:33 0° 253° (WSW) 4,198 10.7 50.6°
Reaches altitude 10° 12:43:52 10° 234° (SW) 3,224 10.5 50.2°
Maximum altitude 12:48:20 16° 200° (SSW) 2,750 10.4 49.7°
Drops below altitude 10° 12:52:38 10° 167° (SSE) 3,078 10.1 49.3°
Sets 12:56:37 0° 147° (SSE) 3,914 10.3 48.9°
